Vertical_Velocity
-1 -2 1 4 -0 3 5 4 -1 1 2 4 1 2 7 -3 0 -2 5 -2 1 -0 -1 0 0 0 0 2 -2 -1 -1 1 -4 2 -1 -2 -2 -5 3 -1 1 1 -2 -1 1
0 0 -2 3 1 2 4 6 0 -0 3 2 4 -2 4 3 1 -3 3 4 2 2 -0 -1 1 -1 0 -0 2 -3 1 2 -2 -2 -1 -0 0 -0 1 -0 -2 0 -3 -2 -0
2 -1 -2 3 2 4 4 4 3 2 1 4 1 1 4 2 -4 18 -3 3 -3 0 -2 0 -2 -1 2 -3 2 0 -2 1 -1 1 4 3 1 -3 -0 0 -2 1 -2 -1 -1
-0 1 2 1 5 2 5 4 3 4 4 7 3 1 5 2 -9 8 0 3 -1 -1 1 2 -1 -1 2 -4 2 1 -7 2 2 3 2 -1 3 -2 -1 1 -0 2 -1 -1 0
2 2 7 0 2 5 5 3 5 4 2 4 8 -1 3 -10 -2 6 -1 5 0 2 0 5 -0 -2 -0 -2 -2 2 -3 -5 2 2 -2 1 3 -2 -2 0 -2 -1 -1 0 -0
4 1 5 -0 2 5 5 4 5 5 2 5 8 2 -4 -7 4 7 6 2 6 4 0 6 5 -4 -6 -4 -2 4 1 -8 -0 2 -0 -0 -2 -1 -3 0 -1 -1 -2 1 1
2 4 -0 3 -1 4 5 4 4 5 3 4 4 9 -3 19 -1 3 0 -1 -4 2 2 3 -2 -4 2 1 -2 -3 -0 -5 -2 -5 3 -1 2 2 2 -1 0 -0 -4 -2 2
-3 10 1 1 0 3 4 4 3 5 6 9 8 6 -8 -0 1 3 4 2 7 0 4 -2 2 -0 3 -4 -0 -5 -7 -9 7 -2 2 -4 10 4 -2 -0 -1 -1 -0 -1 0
1 10 -0 2 1 5 7 7 6 11 8 7 -1 2 -3 -1 -6 0 2 2 1 -0 -6 -1 -2 -1 -2 -0 -1 -11 -1 -0 -6 -1 -6 -1 18 -2 -7 -0 -3 -2 -2 -1 -1
4 4 2 3 1 6 7 12 13 9 2 6 13 10 -23 1 -3 8 3 -0 6 8 4 -3 -5 -0 -2 -11 -6 0 3 6 4 12 -6 -8 11 1 -4 3 -6 1 2 -1 0
4 2 5 1 -0 7 7 -10 -11 -20 -16 -5 13 1 -6 14 -5 4 -1 -1 4 -1 -9 -3 -11 -19 18 11 4 -1 -4 -2 0 1 -12 1 -4 5 -1 -3 1 -4 -1 1 1
-4 4 6 5 5 4 -1 -9 30 42 13 -3 3 -4 6 4 1 8 -0 -10 -11 -3 4 -8 -33 14 3 -4 -6 -4 -6 -1 -2 -1 -9 -3 1 -1 -6 -0 1 -2 -3 -1 4
0 2 6 4 11 -7 9 21 -0 12 -3 7 8 -3 4 15 5 4 2 10 2 -3 -1 -6 15 9 4 3 -6 4 -3 3 5 -1 -8 -2 -9 -7 2 -3 -2 3 -4 -3 -4
6 1 4 13 7 4 0 7 -0 11 2 -3 -9 -8 -7 -3 5 -3 7 4 -8 -0 9 -4 -5 2 4 -5 -2 0 9 7 1 0 -5 -5 -20 -9 1 -2 -6 -1 3 4 -2
10 -1 6 -13 14 -23 39 5 6 11 -2 3 -12 -3 8 -2 30 0 11 -1 -1 14 -4 3 -1 0 -9 21 3 16 13 9 2 -4 -1 -6 -35 17 -8 -3 5 3 0 -0 -1
5 -0 9 -6 -1 17 17 21 18 7 -22 -23 -12 -18 -12 -8 2 -2 2 3 3 -1 -6 8 2 -9 8 4 -2 14 -1 1 3 7 -31 11 -18 -0 0 16 -2 -1 2 -2 -0
5 -0 0 6 -2 9 5 5 7 -7 -0 -19 -18 -7 9 5 8 -0 -0 -5 -12 -13 -18 3 -6 -5 -0 3 -7 -5 1 -9 -5 -14 -71 13 -25 22 3 9 9 -1 -5 -0 2
9 5 -3 11 8 4 6 4 3 -16 -7 -6 2 10 -5 10 -5 3 5 -11 -9 -13 9 -6 -11 2 18 -2 9 15 22 -5 -5 -22 1 18 -78 -20 7 5 8 -3 -3 -4 2
12 1 0 1 9 0 5 -7 -21 3 -0 -1 11 9 1 -3 -3 -1 3 7 -3 1 -4 1 -17 9 11 6 11 17 -58 64 -1 -8 -1 -8 -17 2 1 10 10 7 -7 -4 -3
-3 1 7 10 2 3 4 4 -4 -5 11 4 0 2 -5 -0 -2 -6 -3 9 -1 2 2 4 -1 9 11 -1 -12 -34 55 -8 -16 -26 -19 -20 -16 -16 7 10 7 -2 2 -1 -8
9 6 5 7 8 6 -28 5 -2 -2 1 -12 -5 -3 4 -4 2 4 0 12 2 13 3 9 -4 8 5 -18 16 2 -5 -15 14 -10 -12 -16 -28 7 4 2 1 2 -4 -4 -0
-14 -14 -2 -2 3 6 -4 -11 -5 10 -2 -7 0 3 4 7 -2 -0 -8 12 3 10 -18 31 7 -8 7 12 8 -1 5 10 -1 -33 -5 2 -21 1 7 6 -0 -1 -4 -1 -2
-5 8 8 4 -7 -15 0 -5 -7 -1 -3 2 2 -2 3 1 -4 -4 3 7 3 -2 -2 22 -22 3 8 -8 -15 -1 -3 2 5 5 -41 3 -27 7 3 3 1 -3 2 3 2
-12 -20 6 -2 -5 7 2 -12 -6 -6 -3 8 4 5 5 2 4 -2 2 6 1 6 3 12 -0 -11 -4 13 18 -10 8 9 5 11 -14 -24 9 0 3 7 6 4 -2 3 3
18 -6 -8 -58 -34 -4 6 22 6 -7 -11 -1 -5 -3 3 7 3 -5 -4 5 2 9 -1 2 -15 -1 11 -2 0 9 1 2 -4 -25 -4 2 -12 14 11 1 10 -2 -12 5 1
-5 -15 -7 10 -6 5 -0 -11 -2 0 -2 -6 0 8 6 -12 -2 15 12 6 12 3 -0 3 -22 2 -4 8 -5 -8 4 -5 -18 -10 -14 -21 -39 6 12 2 -16 2 -4 -0 3
-15 1 7 5 -5 -2 -2 -0 -3 -0 -2 0 6 1 -10 9 15 12 -8 -12 -10 -8 -6 -1 -14 1 -43 19 24 -9 -56 8 -6 14 -2 -9 -32 18 6 10 8 0 -2 4 -7
Height
5656 5661 5668 5675 5683 5691 5699 5708 5715 5722 5730 5738 5747 5753 5758 5766 5774 5781 5789 5795 5801 5806 5812 5817 5822 5826 5830 5836 5839 5842 5846 5849 5850 5851 5855 5859 5862 5864 5868 5871 5872 5873 5874 5875 5874
5642 5648 5654 5662 5669 5679 5688 5697 5704 5712 5719 5727 5736 5743 5751 5755 5762 5773 5780 5787 5792 5798 5804 5811 5816 5820 5825 5830 5835 5839 5843 5845 5846 5847 5850 5855 5860 5861 5864 5867 5868 5870 5872 5872 5871
5627 5634 5640 5649 5657 5667 5677 5686 5694 5702 5710 5717 5725 5733 5741 5745 5751 5768 5769 5776 5781 5790 5797 5803 5810 5814 5820 5824 5828 5834 5839 5840 5841 5842 5847 5851 5854 5857 5861 5864 5864 5866 5868 5869 5869
5612 5621 5628 5636 5646 5655 5666 5676 5685 5692 5700 5707 5716 5723 5730 5736 5746 5753 5762 5769 5774 5781 5790 5796 5802 5808 5814 5818 5823 5829 5834 5836 5838 5839 5843 5845 5849 5853 5856 5860 5861 5862 5864 5866 5867
5597 5607 5615 5624 5634 5644 5655 5665 5675 5683 5691 5699 5706 5714 5720 5728 5738 5746 5754 5762 5767 5774 5781 5789 5793 5800 5806 5811 5817 5823 5828 5830 5832 5835 5837 5840 5845 5846 5849 5856 5856 5857 5860 5863 5864
5583 5593 5603 5612 5622 5633 5644 5655 5666 5674 5682 5690 5697 5705 5712 5722 5730 5737 5744 5751 5759 5765 5770 5780 5784 5789 5798 5805 5811 5817 5820 5825 5827 5829 5832 5835 5838 5840 5845 5851 5852 5853 5856 5859 5861
5570 5581 5590 5600 5610 5622 5634 5644 5656 5665 5673 5681 5688 5695 5703 5715 5721 5729 5736 5744 5750 5756 5762 5769 5775 5782 5791 5798 5803 5810 5814 5819 5824 5826 5828 5830 5834 5837 5840 5845 5849 5850 5852 5854 5856
5557 5569 5578 5589 5600 5611 5624 5634 5646 5656 5664 5671 5677 5685 5694 5702 5713 5722 5729 5737 5743 5748 5754 5757 5767 5775 5783 5790 5796 5803 5809 5813 5819 5822 5825 5825 5832 5832 5834 5839 5843 5846 5848 5849 5851
5544 5557 5565 5577 5589 5601 5612 5624 5634 5644 5651 5659 5666 5675 5682 5693 5706 5715 5723 5730 5734 5739 5745 5751 5758 5766 5773 5780 5788 5794 5803 5808 5812 5816 5818 5819 5828 5828 5827 5833 5837 5839 5841 5845 5848
5531 5544 5553 5566 5578 5590 5600 5610 5619 5627 5635 5646 5654 5663 5677 5694 5699 5708 5715 5721 5729 5733 5737 5741 5748 5758 5765 5772 5784 5791 5796 5801 5808 5810 5812 5814 5823 5822 5821 5827 5830 5833 5838 5841 5844
5518 5531 5542 5554 5566 5577 5586 5592 5604 5613 5627 5643 5656 5664 5675 5682 5686 5698 5705 5712 5717 5721 5728 5734 5739 5754 5767 5769 5774 5780 5785 5791 5799 5802 5802 5807 5816 5817 5818 5820 5825 5828 5832 5836 5839
5507 5520 5532 5544 5556 5566 5577 5593 5611 5625 5625 5633 5643 5652 5661 5671 5679 5687 5695 5702 5707 5717 5722 5726 5735 5751 5753 5756 5763 5768 5774 5782 5788 5794 5795 5800 5807 5813 5811 5814 5820 5823 5827 5830 5834
5494 5509 5522 5534 5547 5557 5576 5589 5596 5608 5616 5625 5633 5642 5652 5664 5672 5679 5687 5695 5700 5706 5714 5721 5735 5734 5739 5746 5754 5761 5767 5773 5779 5784 5785 5789 5794 5805 5808 5809 5814 5819 5822 5823 5827
5482 5498 5513 5524 5535 5551 5566 5577 5589 5598 5604 5613 5624 5632 5641 5650 5662 5671 5679 5687 5693 5703 5707 5711 5716 5723 5731 5738 5745 5752 5760 5763 5766 5771 5777 5779 5781 5795 5802 5805 5806 5813 5816 5819 5821
5472 5488 5503 5517 5535 5547 5565 5569 5578 5585 5591 5602 5612 5622 5632 5642 5656 5664 5670 5676 5686 5692 5696 5709 5711 5716 5721 5736 5735 5744 5747 5751 5754 5759 5765 5769 5770 5785 5793 5796 5805 5809 5811 5813 5813
5464 5480 5494 5506 5522 5539 5548 5558 5564 5571 5577 5589 5602 5613 5623 5635 5646 5655 5662 5668 5676 5683 5691 5697 5703 5705 5716 5721 5726 5733 5735 5739 5743 5747 5746 5764 5764 5769 5785 5793 5800 5803 5804 5806 5807
5458 5474 5488 5504 5520 5528 5537 5544 5553 5558 5573 5584 5598 5609 5619 5628 5635 5644 5651 5656 5666 5673 5683 5687 5693 5697 5705 5710 5716 5720 5726 5729 5731 5729 5741 5753 5750 5763 5774 5787 5795 5796 5797 5800 5802
5454 5467 5481 5498 5508 5518 5527 5537 5543 5554 5569 5582 5593 5602 5611 5618 5625 5636 5641 5647 5657 5666 5673 5679 5685 5690 5699 5703 5712 5714 5716 5719 5721 5724 5740 5729 5740 5754 5766 5776 5787 5788 5790 5792 5794
5448 5458 5474 5490 5501 5512 5522 5528 5537 5553 5565 5574 5583 5591 5598 5608 5619 5626 5632 5641 5649 5658 5664 5670 5673 5683 5689 5693 5699 5705 5703 5721 5712 5716 5719 5720 5736 5743 5754 5765 5775 5781 5782 5785 5788
5439 5454 5469 5484 5495 5506 5517 5527 5536 5547 5558 5565 5574 5583 5592 5602 5608 5615 5622 5634 5644 5651 5654 5660 5666 5672 5679 5683 5687 5694 5705 5702 5704 5707 5709 5713 5723 5730 5741 5752 5761 5770 5774 5776 5778
5436 5450 5464 5478 5491 5501 5509 5522 5531 5539 5549 5558 5568 5577 5586 5594 5602 5610 5618 5627 5634 5640 5643 5649 5654 5662 5667 5670 5678 5682 5686 5690 5695 5698 5700 5707 5711 5723 5727 5737 5746 5757 5762 5767 5770
5431 5445 5459 5472 5485 5493 5505 5515 5523 5532 5543 5555 5562 5571 5579 5588 5594 5601 5610 5618 5624 5629 5636 5644 5645 5648 5659 5665 5671 5675 5679 5685 5687 5696 5698 5698 5701 5712 5717 5724 5732 5745 5753 5757 5760
5430 5446 5457 5469 5475 5487 5502 5514 5524 5534 5542 5550 5558 5564 5573 5581 5587 5594 5603 5608 5613 5621 5629 5634 5632 5639 5645 5653 5659 5664 5669 5675 5682 5683 5682 5688 5694 5706 5713 5715 5721 5731 5740 5745 5749
5430 5439 5452 5462 5476 5489 5498 5508 5518 5529 5538 5546 5551 5559 5566 5573 5580 5586 5593 5598 5603 5612 5618 5621 5625 5628 5636 5645 5654 5658 5660 5665 5670 5670 5681 5680 5692 5698 5703 5707 5711 5718 5729 5733 5736
5432 5439 5450 5460 5472 5485 5496 5507 5511 5519 5529 5537 5544 5552 5559 5565 5570 5578 5586 5590 5595 5600 5607 5609 5614 5619 5627 5632 5637 5643 5649 5656 5658 5669 5665 5682 5680 5691 5697 5700 5704 5710 5716 5722 5725
5431 5443 5452 5462 5469 5479 5489 5498 5508 5518 5526 5533 5541 5548 5553 5559 5569 5574 5579 5582 5586 5590 5593 5600 5606 5612 5616 5624 5628 5631 5636 5642 5647 5657 5657 5667 5670 5682 5686 5687 5690 5698 5700 5707 5712
5433 5443 5454 5461 5468 5478 5488 5497 5505 5512 5520 5527 5534 5539 5546 5557 5559 5560 5562 5569 5575 5581 5585 5591 5598 5601 5604 5617 5618 5612 5627 5637 5639 5645 5653 5654 5670 5670 5676 5679 5682 5686 5690 5696 5700